Voltar ao catálogo

FENGYUN 1C DEB

AtivoSSO
NORAD 30730·DEBRIS·🇨🇳 China

Lançado May 10, 1999 de Taiyuan Satellite Launch Center

Loading…

Próximas Passagens (próximas 24 horas)

TLE

AtualizadoSource: Space-Track

Época: Sep 14, 2026, 08:32 UTC

1 30730U 99025ASQ 26257.35567426  .00001121  00000-0  46882-3 0  9994
2 30730  98.5957 296.6343 0075553 325.2550  97.2500 14.26539636  9241

Acompanhe FENGYUN 1C DEB em tempo real com AllMySat

Download on the App Store